sat.trackr.live / text

‹ back to catalog

STARLINK-30147

NORAD 57511 · 2023-113S

PAYLOAD ACTIVE UNKNOWN

§ Identity

Operator
Country
US
Launch date
2023-08-07
Launch site
AFETR
Launch vehicle
Mass (kg)
RCS (m²)

Purposes: comms

External: N2YO · Heavens-Above · Gunter

§ Orbital elements

Epoch: 2026-09-20T07:38:03.090912Z

Period
94.27 min
Inclination
43.0062°
Eccentricity
0.0001987
Mean motion
15.27574474 rev/d
Perigee alt
481.7 km
Apogee alt
484.4 km
Semi-major
6,861.2 km
B*
8.4766e-6
RAAN
356.6958°
Arg perigee
270.6789°
Mean anomaly
89.3835°
Rev number
17,344

§ Raw data

STARLINK-301471 57511U 23113S   26263.31809133 -.00000029  00000+0  84766-5 0  99932 57511  43.0062 356.6958 0001987 270.6789  89.3835 15.27574474173443

JSON: /api/v1/satellites/57511 · /tle

For live sub-satellite position, see the globe view (requires WebGL).

§ Visibility from observer

Set your observer location to see the next 7 days of passes ≥ 10°. The values pass through the URL so the page stays shareable.

No JS? Fill the form by hand. The geolocation button needs JavaScript.